Fallon NAS, NV

3:59 PM PDT on May 29, 2017 (GMT -0700)
Fallon Naval Air Station

Weather History for KNFL - March, 2013

Change the Weather History Date:

Sunday, March 31, 2013

  Actual Average Record
Temperature  
Mean Temperature 47 °F -  
Max Temperature 57 °F 62 °F 84 °F (1966)
Min Temperature 39 °F 30 °F 14 °F (1929)
Degree Days  
Heating Degree Days 18    
Moisture  
Dew Point 34 °F    
Average Humidity 58    
Maximum Humidity 86    
Minimum Humidity 28    
Precipitation  
Precipitation 0.07 in - - ()
Sea Level Pressure  
Sea Level Pressure 29.92 in    
Wind  
Wind Speed 10 mph (South)    
Max Wind Speed 24 mph    
Max Gust Speed 31 mph    
Visibility 10 miles    
Events Rain    
Averages and records for this station are not official NWS values.
T = Trace of Precipitation, MM = Missing Value Source: NWS Daily Summary

Daily Weather History Graph

Daily Weather History Graph

Search for Another Location

Airport or City:

Trip Planner

Search our weather history database for the weather conditions in past years. The results will help you decide how hot, cold, wet, or windy it might be!

Date:

Astronomy

Mar. 31, 2013 Rise Set
Actual Time 6:40 AM PDT 7:18 PM PDT
Civil Twilight 6:13 AM PDT 7:45 PM PDT
Nautical Twilight 5:41 AM PDT 8:17 PM PDT
Astronomical Twilight 5:08 AM PDT 8:50 PM PDT
Moon No Moon Rise 9:33 AM PDT (3/31)
Length of Visible Light 13h 32m
Length of Day
12h 37m
Waning Gibbous, 76% of the Moon is Illuminated
Mar 31
Waning Gibbous
Apr 2
Last Quarter
Apr 10
New
Apr 18
First Quarter
Apr 25
Full

Hourly Weather History & Observations

Time (PDT) Temp. Windchill Dew Point Humidity Pressure Visibility Wind Dir Wind Speed Gust Speed Precip Events Conditions
12:56 AM 54.0 °F - 23.0 °F 30% 29.86 in 10.0 mi SE 10.4 mph - N/A   Clear
1:56 AM 55.0 °F - 23.0 °F 29% 29.85 in 10.0 mi SE 9.2 mph - N/A   Partly Cloudy
2:56 AM 55.9 °F - 23.0 °F 28% 29.85 in 10.0 mi SE 9.2 mph - N/A   Clear
3:56 AM 53.1 °F - 23.0 °F 31% 29.84 in 10.0 mi South 8.1 mph - N/A   Clear
4:56 AM 54.0 °F - 24.1 °F 31% 29.83 in 10.0 mi SSE 10.4 mph - N/A   Clear
5:56 AM 53.1 °F - 24.1 °F 32% 29.84 in 10.0 mi SSW 11.5 mph - N/A   Clear
6:56 AM 50.0 °F - 24.1 °F 36% 29.87 in 10.0 mi West 5.8 mph - N/A   Partly Cloudy
7:56 AM 54.0 °F - 35.1 °F 49% 29.90 in 10.0 mi West 19.6 mph 24.2 mph N/A   Mostly Cloudy
8:56 AM 53.1 °F - 37.0 °F 55% 29.93 in 10.0 mi West 24.2 mph 31.1 mph 0.00 in Rain Light Rain
9:56 AM 54.0 °F - 37.9 °F 55% 29.93 in 10.0 mi West 10.4 mph - 0.00 in   Mostly Cloudy
10:56 AM 50.0 °F - 42.1 °F 74% 29.96 in 10.0 mi West 11.5 mph - 0.00 in Rain Light Rain
11:03 AM 50.0 °F - 42.8 °F 76% 30.06 in 7.0 mi West 12.7 mph - 0.00 in Rain Light Rain
11:56 AM 53.1 °F - 42.1 °F 66% 29.96 in 10.0 mi WNW 8.1 mph - 0.01 in   Overcast
12:32 PM 53.6 °F - 39.2 °F 58% 30.08 in 10.0 mi SW 10.4 mph 18.4 mph 0.00 in Rain Light Rain
12:56 PM 48.9 °F - 39.0 °F 69% 29.99 in 4.0 mi SW 10.4 mph 19.6 mph 0.03 in Rain Light Rain
1:56 PM 46.0 °F 41.0 °F 39.9 °F 79% 29.96 in 10.0 mi East 10.4 mph - 0.03 in   Overcast
2:56 PM 50.0 °F - 37.9 °F 63% 29.94 in 10.0 mi ENE 12.7 mph - N/A   Overcast
3:56 PM 50.0 °F - 39.9 °F 68% 29.92 in 10.0 mi East 4.6 mph - N/A   Overcast
4:56 PM 52.0 °F - 39.0 °F 61% 29.91 in 10.0 mi NE 3.5 mph - N/A   Overcast
5:56 PM 52.0 °F - 39.0 °F 61% 29.90 in 10.0 mi Calm Calm - N/A   Mostly Cloudy
6:56 PM 50.0 °F - 39.0 °F 66% 29.90 in 10.0 mi ESE 3.5 mph - N/A   Clear
7:56 PM 46.9 °F - 37.9 °F 71% 29.91 in 10.0 mi East 5.8 mph - N/A   Clear
8:56 PM 43.0 °F 40.3 °F 36.0 °F 76% 29.91 in 10.0 mi NNE 4.6 mph - N/A   Partly Cloudy
9:56 PM 39.9 °F 35.8 °F 36.0 °F 86% 29.92 in 10.0 mi ESE 5.8 mph - N/A   Clear
10:56 PM 43.0 °F 36.0 °F 36.0 °F 76% 29.93 in 10.0 mi SE 13.8 mph - N/A   Scattered Clouds
11:56 PM 39.9 °F 35.8 °F 36.0 °F 86% 29.92 in 10.0 mi South 5.8 mph - N/A   Partly Cloudy